Location: Briis
(48.6240°N, 2.1211°E)
Time: 07:25:41
(UTC+00:00)

Cosmos 1000 Rocket - Pass Details

Date: 25 September 2020
Orbit: 953 x 992 km, 82.9° (Epoch: 21 October)

Event Time Altitude Azimuth Distance (km) Brightness Sun altitude
Rises 04:23:36 0° 197° (SSW) 3,643 7.2 -13.8°
Reaches altitude 10° 04:26:07 10° 201° (SSW) 2,695 6.5 -13.4°
Maximum altitude 04:32:14 64° 282° (WNW) 1,060 4.5 -12.4°
Drops below altitude 10° 04:38:21 10° 4° (N) 2,696 7.0 -11.4°
Sets 04:40:54 0° 8° (N) 3,644 7.8 -11.0°
